Regional Weather Roundup
Issued by NWS Goodland, KS

Home | Current Version | Previous Version | Text Only | Print | Product List | Glossary Off
Versions: 1 2 3 4 5 6 7 8 9 10 11 12 13 14 15 16 17 18 19 20 21 22 23 24 25 26 27 28 29 30 31 32 33 34 35 36 37 38 39 40 41 42 43 44 45 46 47 48 49 50

000
ASUS43 KGLD 262108
RWRGLD

GOODLAND FORECAST AREA HOURLY WEATHER ROUNDUP
NATIONAL WEATHER SERVICE GOODLAND KS
300 PM MDT FRI MAY 26 2017

...OFFICIAL OBSERVATIONS...

CITY           SKY/WX    TMP DP  RH WIND       PRES   REMARKS
GOODLAND KS    SUNNY     71  50  47 SE9       29.90S
HILL CITY KS   SUNNY     78  52  40 VRB3      29.87F
IMPERIAL NEB   SUNNY     71  46  40 SE8G16    29.88F
MCCOOK NEB     SUNNY     76  49  38 VRB6      29.87F
AKRON CO       CLOUDY    64  47  53 SE18      29.89F
BURLINGTON CO  MOSUNNY   72  55  55 S8        29.91F
LIMON CO       SUNNY     71  43  36 S21G37    29.89F
$$

...UNOFFICIAL OBSERVATIONS...

CITY           SKY/WX    TMP DP  RH WIND       PRES   REMARKS
LENORA KS        N/A     73  32  22 MISG        N/A
NORTON KS      SUNNY     75  48  38 SE7       29.87S
SHARON SPRINGS   N/A     75  53  46 SE5G14      N/A
TRENTON NEB      N/A     73  32  22 SE5         N/A
$$




USA.gov is the U.S. government's official web portal to all federal, state and local government web resources and services.